Location: Vancouver
(49.2500°N, 123.1333°W)
Time: 22:49:55
(UTC-07:00)

Daily predictions for brighter satellites

Satellite Brightness Start Highest point End
(mag) Time Altitude Azimuth Time Altitude Azimuth Time Altitude Azimuth
Meteor 2-21 Rocket 4.5 20:41:21 10° S 20:47:26 69° E 20:53:35 10° NNE
Cosmos 44 Rocket 4.0 20:44:58 10° SW 20:49:44 61° NW 20:54:40 10° NE
Cosmos 1633 Rocket 3.4 20:50:36 10° NNW 20:54:57 70° W 20:59:16 10° S
SL-8 Rocket 4.3 20:52:26 10° SSE 20:58:25 47° E 21:04:23 10° NNE
NOSS 2-1 (E) 3.4 20:56:03 10° SW 20:59:45 82° NW 21:04:09 10° NE
NOSS 3-4 (A) 4.0 20:58:11 10° NW 21:05:02 66° NE 21:12:16 11° SE
NOSS 3-4 (C) 4.0 20:58:17 10° NW 21:05:08 65° NE 21:12:21 11° SE
Cosmos 1515 Rocket 3.6 21:06:54 10° S 21:11:18 62° E 21:15:44 10° NNE
Cosmos 1943 Rocket 4.3 21:09:10 10° N 21:12:11 15° NNE 21:15:12 10° ENE
Cosmos 407 Rocket 3.8 21:08:17 10° NNW 21:13:19 51° ENE 21:17:56 12° SE
ERS-1 Rocket 3.9 21:10:03 11° ESE 21:14:14 32° ENE 21:18:39 10° N
NOSS 3-3 (A) 4.0 21:09:12 10° SW 21:15:20 84° SE 21:22:10 10° NE
NOSS 3-3 (C) 4.0 21:09:17 10° SW 21:15:27 84° SE 21:22:17 10° NE
ARGOS 3.6 21:10:57 10° SE 21:16:01 45° ENE 21:21:08 10° N
SL-16 R/B 3.2 21:11:33 10° SSE 21:16:04 25° ESE 21:20:35 10° NE
ATLAS CENTAUR R/B 1.0 21:13:15 10° SSW 21:16:56 78° SE 21:20:51 10° NE
Cosmos 1408 2.6 21:15:21 10° N 21:19:02 89° W 21:22:43 10° S
Cosmos 2228 Rocket 3.0 21:17:38 10° S 21:22:01 78° E 21:26:27 10° NNE
Meteor 2-10 Rocket 4.1 21:19:57 10° SSE 21:25:22 45° E 21:30:53 10° NNE
Cosmos 1869 3.4 21:24:45 10° S 21:28:40 54° E 21:32:38 10° NNE
Cosmos 1328 Rocket 4.1 21:24:23 10° SSW 21:28:46 64° WNW 21:33:13 10° N
Cosmos 1371 Rocket 4.2 21:24:05 10° S 21:29:13 51° ESE 21:34:26 10° NNE
Cosmos 1939 Rocket 4.3 21:26:34 10° SSW 21:30:11 36° W 21:33:51 10° NNW
H-2A R/B 2.4 21:26:30 14° SE 21:30:32 45° ENE 21:35:14 10° N
Terra 3.7 21:31:29 11° E 21:34:06 17° ENE 21:37:05 10° NNE
USA 245 3.8 21:34:22 18° E 21:34:40 18° ENE 21:36:23 10° NNE
Cosmos 676 Rocket 4.4 21:29:41 10° NNW 21:34:49 50° ENE 21:38:32 18° SE
Cosmos 1455 3.7 21:34:55 10° SW 21:38:33 40° WNW 21:42:14 10° N
Cosmos 1980 3.7 21:35:52 10° SSW 21:41:34 89° ESE 21:47:18 10° NNE
Cosmos 1441 Rocket 3.9 21:41:16 21° SE 21:43:06 33° E 21:46:31 10° NNE
Cosmos 2297 3.7 21:38:33 10° NNW 21:44:16 83° ENE 21:48:36 18° SSE
SL-8 R/B 3.9 21:42:52 10° SW 21:47:29 49° SSE 21:51:44 12° E
Resurs 01 Rocket 3.3 21:43:44 10° SSW 21:47:43 32° W 21:51:44 10° NNW
Cosmos 2369 Rocket 3.6 21:43:36 10° NNW 21:48:27 27° NE 21:52:10 15° E
Cosmos 2056 Rocket 3.6 21:45:13 10° S 21:50:33 62° ESE 21:55:53 10° NNE
Cosmos 1452 Rocket 4.5 21:49:32 21° SE 21:51:34 27° E 21:55:55 10° NE
Cosmos 2344 4.2 21:45:33 10° S 21:52:08 33° ESE 21:59:18 10° NE
Cosmos 405 2.9 21:49:02 10° NNW 21:52:34 83° W 21:54:49 21° S
Lacrosse 5 2.7 21:48:37 10° NW 21:53:30 45° NNE 21:57:31 15° E
USA 234 4.0 21:48:53 10° E 21:55:08 50° NNE 22:01:24 10° WNW
Cosmos 2333 Rocket 3.1 21:49:40 10° SW 21:55:11 52° NW 22:00:42 10° NNE
MetOp-A 4.1 21:52:59 15° SSE 21:57:30 87° WSW 22:02:54 10° NNW
SPOT 5 3.2 21:56:16 24° SE 21:58:32 43° ENE 22:02:43 10° N
Cosmos 2098 Rocket 2.9 21:57:53 10° SSW 22:02:18 77° W 22:05:50 10° N
Cosmos 1727 Rocket 4.1 21:57:50 10° NNW 22:04:02 79° W 22:09:40 13° S
Cosmos 1140 Rocket 3.5 21:59:28 10° NNW 22:04:41 72° ENE 22:07:33 27° SE
Cosmos 2219 Rocket 3.7 21:59:52 10° WSW 22:05:10 39° NW 22:10:28 10° NNE
BREEZE-M DEB (TANK) 1.6 22:03:16 10° W 22:05:32 80° N 22:06:04 47° ENE
Cosmos 1190 Rocket 4.4 22:00:36 10° NNW 22:05:50 62° WSW 22:09:43 18° S
Helios 1B rocket 3.4 22:03:03 10° NE 22:06:36 27° E 22:06:53 27° ESE
Cosmos 1624 Rocket 3.9 22:02:06 10° SSW 22:07:17 86° ESE 22:12:32 10° NNE
Cosmos 2237 Rocket 2.6 22:03:04 10° SW 22:08:40 65° WNW 22:14:18 10° NNE
SL-08 RB Rocket 3.6 22:06:30 22° SSE 22:09:20 84° WSW 22:13:51 10° NNW
Cosmos 1821 Rocket 4.4 22:06:44 23° SSE 22:10:25 45° E 22:16:21 10° NNE
ATLAS 5 CENTAUR R/B 3.1 22:07:50 10° NW 22:13:12 42° NE 22:17:12 19° E
Cosmos 2278 Rocket 3.9 22:09:29 10° NW 22:14:09 27° WSW 22:18:48 10° SSW
Cosmos 405 Rocket 2.6 22:12:14 27° S 22:14:14 71° E 22:18:11 10° NNE
Cosmos 1862 3.5 22:10:38 10° NNW 22:14:41 72° W 22:16:53 26° S
Cosmos 1437 Rocket 3.4 22:11:45 10° N 22:15:24 38° ENE 22:16:12 34° ESE
Cosmos 1954 Rocket 3.9 22:12:56 10° NNW 22:18:12 88° WSW 22:20:53 30° SSE
Cosmos 1825 4.5 22:15:42 10° NW 22:18:39 22° W 22:21:36 10° SW
RESURS DK-1 3.9 22:15:43 10° N 22:19:16 26° NE 22:20:42 21° E
Cosmos 1633 3.7 22:18:47 10° NNE 22:21:53 27° ENE 22:21:58 27° ENE
Cosmos 2123 Rocket 4.4 22:17:33 10° N 22:23:39 48° ENE 22:26:26 30° SE
Cosmos 1707 Rocket 3.4 22:23:37 30° S 22:25:44 77° E 22:30:04 10° NNE
SL-19 R/B 4.3 22:24:04 31° SE 22:26:49 71° ENE 22:32:27 10° NNW
Meteor 1-4 Rocket 3.6 22:25:13 10° N 22:28:15 29° ENE 22:28:15 29° ENE
Cosmos 1869 Rocket 4.3 22:26:08 10° NNW 22:30:23 50° W 22:32:57 22° SSW
BREEZE-M DEB (TANK) 4.5 22:30:20 10° WSW 22:31:04 12° SW 22:31:04 12° SW
Helios 1A 3.1 22:31:29 36° S 22:33:07 73° WSW 22:37:20 10° NNW
Meteor 1-29 4.1 22:30:52 10° NNE 22:33:09 29° ENE 22:33:09 29° ENE
BREEZE-M DEB (TANK) 1.5 22:31:18 10° W 22:35:50 88° S 22:35:51 87° SSE
GEOS 3 Rocket 3.8 22:31:48 10° NE 22:37:01 49° SE 22:39:50 25° S
Cosmos 1733 Rocket 3.0 22:36:20 10° N 22:40:43 66° ENE 22:41:36 51° SE
CARTOSAT-1 3.6 22:42:31 50° ESE 22:43:22 63° ENE 22:47:39 10° N
Cosmos 1241 Rocket 4.5 22:37:42 10° NW 22:44:01 82° SW 22:46:46 37° SSE
Spot 1 4.2 22:44:19 43° SSE 22:45:55 88° ENE 22:50:37 10° NNW
Cosmos 2098 4.5 22:45:58 62° WSW 22:46:14 66° WNW 22:49:41 10° N
YAOGAN 11 4.2 22:45:35 48° ESE 22:46:15 55° ENE 22:50:29 10° N
Cosmos 389 Rocket 4.4 22:44:26 10° NNE 22:46:32 19° NE 22:46:32 19° NE
CZ-2C R/B 3.5 22:46:03 36° E 22:47:04 41° ENE 22:51:39 10° N
ERS-1 Rocket 4.0 22:50:03 21° SSW 22:52:55 41° W 22:57:40 10° NNW
Cosmos 1420 Rocket 3.9 22:50:58 37° S 22:53:05 71° ESE 22:58:25 10° NNE
Landsat 7 3.8 22:52:00 46° S 22:53:26 80° WSW 22:58:14 10° NNW
IGS 5A 3.3 22:55:27 66° SSE 22:55:59 83° ENE 23:00:11 10° NNW
DMSP B5D2-2 4.0 22:51:02 10° NNE 22:56:19 87° WNW 22:58:56 31° SSW
ATLAS CENTAUR R/B 4.0 22:53:32 10° W 22:56:25 20° NNW 22:59:25 10° NNE
Cosmos 1943 Rocket 2.5 22:51:52 10° NNW 22:57:17 52° NE 22:58:56 39° ESE
SL-16 R/B 2.6 22:54:09 10° SW 22:59:45 62° WNW 23:05:24 10° NNE
Meteor 2-17 Rocket 4.5 22:58:21 42° SSE 23:00:20 63° E 23:06:24 10° NNE
Cosmos 1605 Rocket 4.2 22:58:58 41° SE 23:00:46 54° E 23:06:59 10° NNE
CZ-4C R/B 2.2 23:00:46 48° SSE 23:01:43 55° ESE 23:07:38 10° NE
USA 267 3.4 22:55:34 10° ENE 23:01:51 47° SE 23:05:27 25° SSW
SPOT 1/Viking Rocket 4.0 22:59:45 34° SSW 23:01:51 57° W 23:07:01 10° NNW
Cosmos 1933 4.1 23:03:13 33° SW 23:04:41 50° WNW 23:08:41 10° N
SAR-Lupe-4 4.4 23:07:36 40° NE 23:07:36 40° NE 23:10:29 10° N
H-2A R/B 3.6 23:07:08 16° SW 23:10:09 27° W 23:14:21 10° NW
Terra 1.8 23:10:21 59° S 23:11:15 80° WSW 23:16:03 10° NNW
Cosmos 2242 Rocket 3.4 23:11:27 71° SSW 23:11:55 89° WNW 23:16:21 10° N
Cosmos 1606 3.3 23:17:40 48° NE 23:17:40 48° NE 23:20:43 10° NNE
Spot 4 4.0 23:20:50 54° E 23:21:12 56° ENE 23:25:53 10° N
Cosmos 1782 3.5 23:22:51 44° NE 23:22:51 44° NE 23:25:51 10° NNE
Meteor 1-11 Rocket 4.3 23:17:14 10° N 23:22:34 40° ENE 23:23:26 38° E
Cosmos 1603 3.5 23:25:20 51° SSW 23:26:48 82° ESE 23:32:27 10° NNE
Nimbus 7 Rocket 4.3 23:21:12 10° NNE 23:27:09 80° ESE 23:28:39 52° S
Cosmos 1934 Rocket 4.0 23:24:45 36° SSW 23:27:21 72° W 23:33:26 10° N
Cosmos 1943 3.3 23:29:29 53° ESE 23:29:29 53° ESE 23:34:56 10° NE
SL-8 R/B 3.5 23:25:03 10° W 23:29:45 81° SSW 23:29:45 81° SSW
Cosmos 1703 Rocket 4.2 23:33:00 44° NE 23:33:00 44° NE 23:36:23 10° NNE
Cosmos 2369 Rocket 2.2 23:27:20 10° NNW 23:33:00 69° WSW 23:33:58 58° SSW
Cosmos 1452 Rocket 4.3 23:29:47 19° SW 23:33:26 50° WNW 23:38:33 10° NNE
Cosmos 1908 Rocket 3.5 23:30:42 10° NNW 23:35:04 80° WNW 23:35:04 80° WNW
Cosmos 2263 4.0 23:30:52 10° NNW 23:36:31 85° WSW 23:37:18 67° SSE
Lacrosse 5 1.8 23:31:41 10° WNW 23:36:41 66° SW 23:36:41 66° SW
SPOT 5 4.4 23:35:30 21° WSW 23:36:47 24° W 23:40:23 10° NW
USA 234 3.2 23:35:28 43° ESE 23:37:52 87° NNE 23:44:27 10° WNW
H-2A R/B 3.5 23:39:04 28° ENE 23:39:09 28° ENE 23:43:00 10° N
Helios 1B rocket 3.9 23:38:12 10° N 23:41:56 33° WNW 23:43:15 27° WSW
Cosmos 1862 Rocket 4.2 23:41:41 47° WSW 23:42:14 50° WNW 23:46:32 10° N
CZ-2C R/B 2.6 23:38:28 10° NNE 23:43:49 64° ESE 23:43:59 64° ESE
Cosmos 1153 Rocket 4.4 23:45:07 58° SSE 23:46:25 78° E 23:52:48 10° NNE
SeaSat 1 3.7 23:45:23 29° ENE 23:46:33 33° NE 23:50:56 10° NNW
Cosmos 1602 4.4 23:44:16 10° N 23:47:24 54° N 23:47:24 54° N
Cosmos 921 Rocket 3.4 23:49:49 59° WNW 23:49:51 59° WNW 23:54:08 10° NNE
Cosmos 1271 Rocket 4.0 23:46:21 10° N 23:49:11 36° NE 23:49:11 36° NE
Meteor 1-5 Rocket 4.4 23:48:21 10° N 23:53:34 51° ENE 23:53:52 50° E
